Location: Newark
(49.7467°N, 13.3728°E)
Time: 08:47:24
(UTC+00:00)

N. Korean satellite - Visible Passes

Search period start: 18 September 2020 00:00
Search period end: 28 September 2020 00:00
Orbit: 455 x 503 km, 97.2° (Epoch: 17 September)

Date Brightness Start Highest point End Pass type
(mag) Time Alt. Az. Time Alt. Az. Time Alt. Az.
18 Sep 9.9 03:42:11 10° NE 03:44:24 15° E 03:46:35 10° SE visible
21 Sep 9.6 03:56:58 10° NE 03:59:52 21° E 04:02:44 10° SE visible
22 Sep 10.2 03:32:16 10° ENE 03:33:36 12° E 03:34:56 10° ESE visible
24 Sep 8.8 04:11:59 10° NNE 04:15:17 31° E 04:18:32 10° SSE visible
25 Sep 9.8 03:46:39 10° NE 03:49:05 17° E 03:51:28 10° SE visible
27 Sep 7.9 04:27:06 10° NNE 04:30:39 46° E 04:34:07 10° S visible
